Newport News, VA

1:12 PM EDT on March 25, 2017 (GMT -0400)
Newport News-Williamsburg International

Weather History for KPHF - November, 2013

Change the Weather History Date:

Sunday, November 17, 2013

  Actual Average Record
Temperature  
Mean Temperature 62 °F -  
Max Temperature 73 °F 59 °F 74 °F (1951)
Min Temperature 51 °F 39 °F 22 °F (1967)
Degree Days  
Heating Degree Days 3    
Growing Degree Days 12 (Base 50)    
Moisture  
Dew Point 54 °F    
Average Humidity 83    
Maximum Humidity 94    
Minimum Humidity 59    
Precipitation  
Precipitation 0.00 in - - ()
Sea Level Pressure  
Sea Level Pressure 30.13 in    
Wind  
Wind Speed 2 mph (SE)    
Max Wind Speed 15 mph    
Max Gust Speed -    
Visibility 5 miles    
Events Fog    
Averages and records for this station are not official NWS values.
T = Trace of Precipitation, MM = Missing Value Source: NWS Daily Summary

Daily Weather History Graph

Daily Weather History Graph

Search for Another Location

Airport or City:

Trip Planner

Search our weather history database for the weather conditions in past years. The results will help you decide how hot, cold, wet, or windy it might be!

Date:

Astronomy

Nov. 17, 2013 Rise Set
Actual Time 6:47 AM EST 4:54 PM EST
Civil Twilight 6:19 AM EST 5:22 PM EST
Nautical Twilight 5:47 AM EST 5:53 PM EST
Astronomical Twilight 5:16 AM EST 6:24 PM EST
Moon 5:09 PM EST (11/17) 6:39 AM EST (11/17)
Length of Visible Light 11h 03m
Length of Day
10h 07m
Full, 100% of the Moon is Illuminated
Nov 17
Full
Nov 25
Last Quarter
Dec 2
New
Dec 9
First Quarter
Dec 17
Full

Hourly Weather History & Observations

Time (EST) Temp. Dew Point Humidity Pressure Visibility Wind Dir Wind Speed Gust Speed Precip Events Conditions
12:19 AM 53.6 °F 50.0 °F 88% 30.23 in 0.2 mi Calm Calm - N/A Fog Fog
12:44 AM 55.4 °F 51.8 °F 88% 30.23 in 0.2 mi Calm Calm - N/A Fog Fog
12:54 AM 54.0 °F 51.1 °F 90% 30.22 in 0.2 mi Calm Calm - N/A Fog Fog
1:54 AM 54.0 °F 51.1 °F 90% 30.22 in 0.2 mi Calm Calm - N/A Fog Fog
2:54 AM 54.0 °F 50.0 °F 86% 30.20 in 0.2 mi Calm Calm - N/A Fog Fog
3:19 AM 53.6 °F 51.8 °F 94% 30.20 in 0.5 mi Calm Calm - N/A Fog Fog
3:34 AM 53.6 °F 51.8 °F 94% 30.20 in 0.8 mi Calm Calm - N/A   Overcast
3:54 AM 54.0 °F 50.0 °F 86% 30.19 in 0.8 mi Calm Calm - N/A   Overcast
4:01 AM 53.6 °F 51.8 °F 94% 30.20 in 1.0 mi Calm Calm - N/A   Overcast
4:16 AM 53.6 °F 51.8 °F 94% 30.19 in 2.0 mi Calm Calm - N/A   Overcast
4:46 AM 53.6 °F 51.8 °F 94% 30.17 in 1.5 mi Calm Calm - N/A   Mostly Cloudy
4:54 AM 54.0 °F 51.1 °F 90% 30.17 in 1.2 mi Calm Calm - N/A   Mostly Cloudy
5:02 AM 53.6 °F 50.0 °F 88% 30.18 in 0.5 mi Calm Calm - N/A Fog Fog
5:19 AM 51.8 °F 48.2 °F 88% 30.17 in 0.2 mi East 5.8 mph - N/A Fog Fog
5:34 AM 53.6 °F 48.2 °F 82% 30.17 in 0.5 mi ENE 3.5 mph - N/A Fog Fog
5:43 AM 53.6 °F 51.8 °F 94% 30.17 in 0.2 mi NE 4.6 mph - N/A Fog Fog
5:54 AM 55.0 °F 51.1 °F 86% 30.17 in 0.2 mi ENE 3.5 mph - N/A Fog Fog
6:07 AM 55.4 °F 51.8 °F 88% 30.17 in 0.2 mi East 4.6 mph - N/A Fog Fog
6:54 AM 54.0 °F 51.1 °F 90% 30.17 in 0.2 mi NE 4.6 mph - N/A Fog Fog
7:19 AM 55.4 °F 51.8 °F 88% 30.19 in 0.2 mi Calm Calm - N/A Fog Fog
7:54 AM 55.0 °F 52.0 °F 89% 30.20 in 0.2 mi North 3.5 mph - N/A Fog Fog
8:01 AM 55.4 °F 51.8 °F 88% 30.20 in 1.0 mi Calm Calm - N/A   Overcast
8:38 AM 57.2 °F 53.6 °F 88% 30.20 in 2.5 mi East 4.6 mph - N/A   Overcast
8:48 AM 57.2 °F 53.6 °F 88% 30.20 in 3.0 mi East 3.5 mph - N/A   Overcast
8:54 AM 57.0 °F 54.0 °F 89% 30.20 in 4.0 mi Calm Calm - N/A   Overcast
9:12 AM 57.2 °F 55.4 °F 94% 30.20 in 5.0 mi East 3.5 mph - N/A   Overcast
9:47 AM 60.8 °F 55.4 °F 82% 30.19 in 10.0 mi SE 3.5 mph - N/A   Overcast
9:54 AM 60.1 °F 55.0 °F 83% 30.19 in 10.0 mi SSE 3.5 mph - N/A   Overcast
10:54 AM 66.0 °F 57.0 °F 73% 30.16 in 10.0 mi SSE 3.5 mph - N/A   Mostly Cloudy
11:54 AM 70.0 °F 57.9 °F 65% 30.12 in 10.0 mi South 3.5 mph - N/A   Overcast
12:11 PM 71.6 °F 57.2 °F 60% 30.12 in 10.0 mi SSW 5.8 mph - N/A   Scattered Clouds
12:54 PM 73.0 °F 57.9 °F 59% 30.10 in 10.0 mi South 6.9 mph - N/A   Clear
1:54 PM 72.0 °F 57.9 °F 61% 30.06 in 10.0 mi SSW 5.8 mph - N/A   Clear
2:54 PM 68.0 °F 57.9 °F 70% 30.04 in 10.0 mi ENE 6.9 mph - N/A   Clear
3:54 PM 66.9 °F 57.9 °F 73% 30.02 in 10.0 mi East 4.6 mph - N/A   Clear
4:54 PM 64.9 °F 57.9 °F 78% 30.02 in 10.0 mi SSE 4.6 mph - N/A   Clear
5:54 PM 64.0 °F 57.9 °F 80% 30.01 in 10.0 mi SE 5.8 mph - N/A   Clear
6:54 PM 64.0 °F 57.9 °F 80% 30.02 in 10.0 mi Calm Calm - N/A   Overcast
7:54 PM 66.9 °F 60.1 °F 79% 29.98 in 10.0 mi South 8.1 mph - N/A   Overcast
8:54 PM 68.0 °F 61.0 °F 78% 29.95 in 10.0 mi SSE 6.9 mph - N/A   Clear
9:54 PM 68.0 °F 61.0 °F 78% 29.92 in 10.0 mi South 9.2 mph - N/A   Mostly Cloudy
10:54 PM 69.1 °F 62.1 °F 78% 29.90 in 10.0 mi South 9.2 mph - N/A   Overcast
11:36 PM 69.8 °F 62.6 °F 78% 29.89 in 10.0 mi South 12.7 mph - N/A   Overcast
11:54 PM 70.0 °F 63.0 °F 78% 29.87 in 10.0 mi SSW 15.0 mph - 0.00 in   Overcast